{"data":{"norad_id":55152,"epoch":"2026-05-25T01:09:51.989760Z","epoch_age_seconds":67203,"freshness":"FRESH","line1":"1 55152U 23004N   26145.04851840  .00000026  00000+0  33199-4 0  9991","line2":"2 55152  87.9161 340.0759 0001235 114.2986 245.8275 13.18686207166640","mean_motion":13.18686207,"eccentricity":0.0001235,"inclination_deg":87.9161,"raan_deg":340.0759,"arg_perigee_deg":114.2986,"mean_anomaly_deg":245.8275,"bstar":3.3199e-5,"rev_number":16664,"period_min":109.19959519983,"perigee_km":1188.8077017934,"apogee_km":1190.6769679891,"semimajor_km":7567.8793348912,"source":"CELESTRAK","updated_at":"2026-05-25T13:38:22.641847Z"}}